[[{"header":{"parameterUnit":"m.s-1","parameterCategory":1,"la1":30.2991,"la2":30.254,"lo1":-89.0895,"lo2":-89.0444,"dy":0.0017,"dx":0.0017,"nx":28,"ny":28,"refTime":"2025-07-20T09:00:00:Z","depth":0,"parameterNumber":2,"parameterNumberName":"U-component_of_WINDS"},"data":[0,0,0,0,0,0,0,0,0,0,0,0,0,0,0,0,0,0,0,0,0,0,0,0,0,0,0,0,0,0,0,0,0,0,0,0,0,0,0,0,0,0,0,0,0,0,0,0,0,0,0,0,0,0,0,0,0,0,5.0888,5.0889,0,5.096,5.0961,5.0961,5.0861,5.0857,5.0854,5.085,5.0922,5.0927,5.0932,0,0,0,0,0,0,0,0,0,0,0,0,0,5.066,5.0665,5.0888,5.0889,5.089,5.096,5.0961,5.0962,5.0861,5.0857,5.0853,5.0849,5.092,5.0926,5.0932,0,0,0,0,0,0,0,0,0,0,0,0,0,5.0748,5.0666,5.0888,5.0848,5.0845,5.096,5.0961,5.0962,5.0862,5.0857,5.0852,5.0847,5.0918,5.0925,5.0933,5.1089,0,0,5.0957,5.0961,0,0,0,0,0,0,0,0,5.0743,5.0757,5.0853,5.0851,5.0848,5.0896,5.0906,5.1004,5.0864,5.0856,5.085,5.0844,5.0917,5.0925,5.095,5.1092,5.1095,5.0958,5.0963,5.0966,5.0968,0,0,0,0,0,0,0,5.0737,5.0753,5.0916,5.0855,5.0852,5.0826,5.0832,5.0924,5.0916,5.0856,5.0849,5.0859,5.0915,5.0943,5.0951,5.1096,5.0958,5.0965,5.0969,5.0972,5.1365,5.1371,0,0,0,0,0,0,5.0736,5.0749,5.0914,5.0918,5.0782,5.0834,5.0841,5.0886,5.0914,5.0914,5.0863,5.0854,5.0932,5.0942,5.0953,5.1133,5.0966,5.0973,5.0978,5.136,5.1367,5.1373,0,0,0,0,0,0,5.0732,5.0752,5.0911,5.0832,5.085,5.0844,5.0894,5.089,5.0918,5.092,5.0918,5.0894,5.0928,5.0942,5.1055,5.1134,5.0977,5.0984,5.1353,5.1362,5.137,5.1498,0,0,0,0,0,0,5.0726,5.0751,5.0811,5.0834,5.0855,5.1013,5.09,5.0895,5.0932,5.092,5.0948,5.0947,5.0925,5.1044,5.1063,5.1142,5.099,5.1346,5.1357,5.1367,5.1486,5.151,5.153,0,0,0,0,0,5.0718,5.0845,5.0815,5.0835,5.093,5.1018,5.103,5.1002,5.0939,5.0998,5.0999,5.0946,5.1124,5.1056,5.1077,5.116,5.134,5.1354,5.1366,5.1477,5.1505,5.1529,0,0,0,0,0,0,5.0831,5.0847,5.0814,5.0952,5.0985,5.1001,5.1075,5.1034,5.1085,5.1072,5.1035,5.1042,5.1162,5.1173,5.1097,5.131,5.1221,5.1239,5.1298,5.1325,5.1347,5.134,5.0997,0,0,0,0,0,5.0872,5.0944,5.0954,5.1074,5.1093,5.1082,5.1119,5.1095,5.1127,5.114,5.1149,5.1182,5.1244,5.1286,5.1344,5.1489,5.1491,5.1556,5.1578,5.1596,5.161,5.1683,5.1711,5.1415,5.1415,5.1415,0,0,5.0957,5.0975,5.1022,5.1097,5.112,5.1193,5.1094,5.1176,5.1229,5.1152,5.1258,5.1267,5.13,5.1429,5.1486,5.1441,5.1693,5.1612,5.1626,5.1631,5.1699,5.1727,5.1752,5.1424,5.1422,5.1421,0,0,5.1149,5.1172,5.1272,5.1297,5.1332,5.1324,5.1349,5.1372,5.1374,5.148,5.1423,5.1486,5.1596,5.162,5.1647,5.1848,5.18,5.1868,5.198,5.2052,5.2075,5.2095,5.2163,5.2188,5.1883,5.1884,5.1884,0,5.125,5.1359,5.133,5.1415,5.1448,5.1383,5.1484,5.1509,5.1562,5.1585,5.1535,5.1669,5.1688,5.1819,5.1868,5.1894,5.1918,5.1863,5.2075,5.2095,5.2113,5.2177,5.2203,5.1891,5.1891,5.189,5.1889,0,5.1479,5.1556,5.1633,5.1685,5.1727,5.1821,5.1803,5.185,5.1823,5.1819,5.1927,5.1946,5.2005,5.2036,5.2011,5.2163,5.2134,5.2081,5.1989,5.2149,5.2208,5.2233,5.1903,5.19,5.1898,5.1896,0,0,5.1742,5.1776,5.1805,5.1826,5.186,5.1918,5.2007,5.2066,5.2104,5.2143,5.2214,5.2309,5.2258,5.2289,5.2266,5.233,5.2482,5.2267,5.2267,5.2303,5.2647,5.2684,5.2713,5.2452,5.2457,5.2461,5.2643,0,5.193,5.2084,5.206,5.2208,5.2276,5.2216,5.2293,5.2321,5.2321,5.2377,5.2376,5.2441,5.2372,5.239,5.2451,5.2451,5.255,5.2438,5.2515,5.2518,5.2504,5.2745,5.2785,5.2956,5.2666,5.267,5.2673,0,5.2169,5.2216,5.2371,5.2392,5.242,5.249,5.254,5.2596,5.2626,5.2621,5.2655,5.262,5.2706,5.2618,5.2735,5.2659,5.2689,5.2694,5.27,5.2702,5.2602,5.275,5.301,5.3034,5.271,5.2707,5.2704,0,5.2339,5.2442,5.2547,5.2568,5.2596,5.2646,5.266,5.2685,5.2721,5.2765,5.2787,5.2841,5.287,5.2911,5.289,5.2828,5.301,5.292,5.3005,5.3005,5.3042,5.304,5.3307,5.307,5.307,5.3069,5.3069,0,5.2549,5.2645,5.2623,5.2688,5.2793,5.2764,5.2869,5.2875,5.2898,5.2961,5.2913,5.2973,5.2944,5.3001,5.2986,5.3082,5.3097,5.3093,5.3086,5.3095,5.3094,5.3111,5.3096,5.3076,5.3075,5.3073,5.3072,0,5.2755,5.2745,5.2855,5.2873,5.288,5.2956,5.297,5.3029,5.3025,5.3105,5.3123,5.3116,5.318,5.3165,5.3236,5.3225,5.3346,5.3327,5.3336,5.3329,5.3413,5.3404,5.3697,5.3732,5.3477,5.3479,5.3482,0,5.2888,5.296,5.2986,5.3025,5.3042,5.3106,5.3142,5.3117,5.3156,5.3195,5.3249,5.331,5.3356,5.3462,5.3462,5.3516,5.3495,5.3594,5.3502,5.3507,5.3491,5.3485,5.349,5.3611,5.3614,5.3616,5.3618,0,5.3122,5.3113,5.3167,5.322,5.3264,5.3305,5.334,5.3374,5.3352,5.3398,5.3464,5.35,5.3572,5.3631,5.368,5.3692,5.3651,5.3648,5.3669,5.3676,5.3675,5.3672,5.338,5.364,5.3638,5.3636,5.3635,5.3634,5.3292,5.3352,5.3379,5.344,5.3465,5.3498,5.3554,5.3557,5.3611,5.3668,5.365,5.3724,5.375,5.3811,5.383,5.3886,5.3848,5.3881,5.3888,5.3895,5.3904,5.3671,5.3896,5.3895,5.3894,5.3894,5.3893,0,5.3519,5.3534,5.3591,5.3642,5.369,5.3649,5.3685,5.3727,5.3793,5.3822,5.3869,5.3943,5.4,5.4005,5.4058,5.4102,5.4084,5.4116,5.411,5.4113,5.3937,5.3911,5.413,5.413,5.413,5.413,5.413,5.413,5.3643,5.3741,5.3736,5.3845,5.3858,5.3931,5.3954,5.3985,5.4007,5.4092,5.4139,5.4143,5.4161,5.4215,5.4265,5.4265,5.4285,5.4324,5.4316,5.415,5.4126,5.4104,5.4078,5.4329,5.433,5.4487,5.4488,5.4489]},{"header":{"parameterUnit":"m.s-1","parameterCategory":1,"la1":30.2991,"la2":30.254,"lo1":-89.0895,"lo2":-89.0444,"dy":0.0017,"dx":0.0017,"nx":28,"ny":28,"refTime":"2025-07-20T09:00:00:Z","depth":0,"parameterNumber":3,"parameterNumberName":"V-component_of_WINDS"},"data":[0,0,0,0,0,0,0,0,0,0,0,0,0,0,0,0,0,0,0,0,0,0,0,0,0,0,0,0,0,0,0,0,0,0,0,0,0,0,0,0,0,0,0,0,0,0,0,0,0,0,0,0,0,0,0,0,0,0,3.5928,3.5929,0,3.5961,3.5962,3.5962,3.5918,3.5916,3.5914,3.5913,3.5945,3.5948,3.595,0,0,0,0,0,0,0,0,0,0,0,0,0,3.5824,3.5826,3.5928,3.5929,3.5929,3.5961,3.5962,3.5962,3.5918,3.5916,3.5914,3.5912,3.5944,3.5947,3.595,0,0,0,0,0,0,0,0,0,0,0,0,0,3.5864,3.5827,3.5928,3.5911,3.591,3.5961,3.5962,3.5962,3.5918,3.5916,3.5913,3.5911,3.5944,3.5947,3.595,3.602,0,0,3.5961,3.5963,0,0,0,0,0,0,0,0,3.5862,3.5868,3.5913,3.5912,3.5911,3.5933,3.5937,3.5982,3.5919,3.5915,3.5913,3.591,3.5943,3.5946,3.5958,3.6022,3.6023,3.5962,3.5964,3.5965,3.5966,0,0,0,0,0,0,0,3.5859,3.5866,3.5941,3.5914,3.5912,3.59,3.5904,3.5945,3.5942,3.5915,3.5912,3.5917,3.5942,3.5955,3.5958,3.6023,3.5961,3.5965,3.5967,3.5968,3.6143,3.6146,0,0,0,0,0,0,3.5859,3.5864,3.594,3.5942,3.588,3.5904,3.5908,3.5928,3.5941,3.5941,3.5919,3.5914,3.595,3.5954,3.5959,3.604,3.5965,3.5968,3.597,3.6141,3.6144,3.6147,0,0,0,0,0,0,3.5857,3.5866,3.5939,3.5902,3.5911,3.5909,3.5932,3.593,3.5943,3.5944,3.5943,3.5932,3.5948,3.5954,3.6005,3.604,3.597,3.5973,3.6138,3.6142,3.6145,3.6203,0,0,0,0,0,0,3.5854,3.5866,3.5893,3.5903,3.5913,3.5985,3.5934,3.5933,3.5949,3.5944,3.5957,3.5956,3.5947,3.6,3.6008,3.6044,3.5976,3.6135,3.614,3.6144,3.6198,3.6208,3.6217,0,0,0,0,0,3.585,3.5908,3.5894,3.5904,3.5947,3.5987,3.5993,3.5981,3.5952,3.5979,3.5979,3.5956,3.6035,3.6005,3.6015,3.6052,3.6132,3.6138,3.6144,3.6193,3.6206,3.6217,0,0,0,0,0,0,3.5902,3.5909,3.5894,3.5957,3.5972,3.598,3.6013,3.5995,3.6018,3.6012,3.5995,3.5999,3.6052,3.6057,3.6024,3.6119,3.6079,3.6087,3.6114,3.6126,3.6135,3.6132,3.5979,0,0,0,0,0,3.592,3.5953,3.5957,3.6012,3.6021,3.6016,3.6033,3.6022,3.6037,3.6042,3.6047,3.6061,3.6089,3.6108,3.6134,3.6198,3.6199,3.6228,3.6238,3.6246,3.6253,3.6285,3.6298,3.6165,3.6165,3.6165,0,0,3.5959,3.5967,3.5989,3.6023,3.6033,3.6066,3.6021,3.6059,3.6082,3.6048,3.6096,3.6099,3.6114,3.6171,3.6197,3.6177,3.6289,3.6253,3.626,3.6262,3.6292,3.6305,3.6316,3.6169,3.6169,3.6168,0,0,3.6046,3.6057,3.6103,3.6113,3.6129,3.6125,3.6136,3.6147,3.6148,3.6195,3.6169,3.6197,3.6246,3.6257,3.6269,3.6358,3.6337,3.6367,3.6418,3.645,3.646,3.6469,3.6499,3.6511,3.6374,3.6374,3.6374,0,3.6092,3.6142,3.6128,3.6167,3.6182,3.6152,3.6197,3.6209,3.6232,3.6242,3.622,3.6279,3.6287,3.6346,3.6368,3.6379,3.639,3.6366,3.646,3.6469,3.6477,3.6505,3.6517,3.6378,3.6377,3.6377,3.6377,0,3.6197,3.6231,3.6266,3.6289,3.6308,3.635,3.6342,3.6362,3.635,3.6348,3.6395,3.6404,3.643,3.6443,3.6432,3.65,3.6487,3.6462,3.6422,3.6493,3.652,3.6531,3.6383,3.6382,3.638,3.638,0,0,3.6318,3.6332,3.6345,3.6354,3.6368,3.6394,3.6434,3.646,3.6477,3.6494,3.6525,3.6567,3.6544,3.6557,3.6546,3.6575,3.6643,3.6546,3.6546,3.6563,3.6716,3.6733,3.6746,3.6629,3.6631,3.6632,3.6714,0,3.6404,3.6473,3.6461,3.6528,3.6558,3.6529,3.6564,3.6576,3.6575,3.6599,3.6598,3.6627,3.6595,3.6603,3.663,3.6629,3.6673,3.6623,3.6657,3.6658,3.6653,3.6761,3.678,3.6856,3.6725,3.6726,3.6728,0,3.6514,3.6534,3.6604,3.6611,3.6623,3.6655,3.6676,3.6701,3.6713,3.671,3.6725,3.6708,3.6746,3.6705,3.6757,3.6723,3.6736,3.6737,3.674,3.6742,3.6697,3.6764,3.6881,3.6892,3.6744,3.6743,3.6742,0,3.6593,3.6638,3.6684,3.6693,3.6704,3.6726,3.6732,3.6742,3.6757,3.6776,3.6785,3.6808,3.682,3.6838,3.6827,3.6799,3.6879,3.6839,3.6877,3.6877,3.6894,3.6893,3.7014,3.6905,3.6905,3.6905,3.6905,0,3.6689,3.6733,3.672,3.6749,3.6796,3.6781,3.6827,3.6829,3.6838,3.6866,3.6842,3.6869,3.6854,3.6878,3.687,3.6913,3.6919,3.6916,3.6914,3.6918,3.6918,3.6926,3.6919,3.6908,3.6907,3.6907,3.6906,0,3.6786,3.6779,3.6828,3.6834,3.6836,3.687,3.6874,3.69,3.6897,3.6932,3.694,3.6934,3.6962,3.6953,3.6983,3.6978,3.7031,3.7022,3.7027,3.7024,3.7063,3.7059,3.7191,3.7207,3.709,3.7091,3.7092,0,3.6847,3.6879,3.6888,3.6905,3.6912,3.694,3.6955,3.6941,3.6958,3.6974,3.6997,3.7023,3.7043,3.7088,3.7086,3.7109,3.7099,3.7144,3.7102,3.7105,3.7098,3.7096,3.7098,3.7152,3.7153,3.7155,3.7155,0,3.6956,3.6951,3.6974,3.6996,3.7015,3.7032,3.7046,3.7061,3.7048,3.7068,3.7096,3.7111,3.7141,3.7166,3.7186,3.719,3.717,3.7169,3.7178,3.7183,3.7183,3.7182,3.7048,3.7165,3.7164,3.7164,3.7163,3.7163,3.7036,3.7062,3.7072,3.7098,3.7108,3.7121,3.7145,3.7145,3.7168,3.7191,3.7182,3.7213,3.7223,3.7248,3.7255,3.7278,3.7261,3.7276,3.7279,3.7283,3.7287,3.7181,3.7282,3.7282,3.7282,3.7281,3.7281,0,3.7142,3.7147,3.7171,3.7191,3.7212,3.7191,3.7206,3.7224,3.7252,3.7263,3.7282,3.7313,3.7337,3.7337,3.7359,3.7378,3.7369,3.7384,3.7382,3.7383,3.7302,3.7291,3.7391,3.7391,3.7391,3.7391,3.7391,3.7391,3.72,3.7243,3.7239,3.7286,3.729,3.7321,3.7331,3.7342,3.7351,3.7387,3.7406,3.7406,3.7412,3.7434,3.7454,3.7453,3.7462,3.748,3.7476,3.74,3.7389,3.7378,3.7368,3.7482,3.7483,3.7554,3.7555,3.7556]}]]